Starlink 32164

operational
NORAD ID: 60271 Int'l Des: 2024-131 Owner: SPXS Country: US Constellation: starlink
LEOCIRCULAR

Starlink 32164について

説明を読み込み中...

リアルタイム位置

3D地球を読み込み中...

次回通過

高度履歴

Altitude vs Time

uPlot chart will show altitude changes over time

軌道要素

1 60271U 24131S 25351.52320076 -.00001927 00000-0 -52973-4 0 9999
2 60271 53.1609 74.4357 0001080 80.0432 280.0690 15.30184110 79036
Epoch: Dec 17, 2025 • Age: 10 hours

現在のステータス

高度 475.8 km
速度 7.63 km/s
衛星直下点 4.11°N, 178.25°W
打ち上げ日 Jul 27, 2024
運用期間 1.3 years
タイプ internet

技術仕様

分類 Payload
質量 730.00 kg
乾燥質量 700.00 kg
総質量 730.00 kg
長さ 0.30 m
直径 4.10 m
スパン 29.00 m
形状 Box + pan
製造者 SPXS
バスタイプ Starlink V2M
フェーズステータス In Orbit
所有者/国 SPXS/US

大規模コンステレーション

Loading constellations...